{"data":{"norad_id":65889,"epoch":"2026-05-25T01:30:45.684864Z","epoch_age_seconds":63413,"freshness":"FRESH","line1":"1 65889U 25224H   26145.06302876  .00030058  00000+0  10225-2 0  9998","line2":"2 65889  53.1584  16.8672 0001125  96.1452 263.9677 15.30212991 36541","mean_motion":15.30212991,"eccentricity":0.0001125,"inclination_deg":53.1584,"raan_deg":16.8672,"arg_perigee_deg":96.1452,"mean_anomaly_deg":263.9677,"bstar":0.0010225,"rev_number":3654,"period_min":94.104546783318,"perigee_km":474.40528316529,"apogee_km":475.94727865349,"semimajor_km":6853.3132809094,"source":"CELESTRAK","updated_at":"2026-05-25T13:38:20.980262Z"}}